Погода в Шемахы

Азербайджан     40°37′56″N   48°37′55″E
темп.,
°C
ветер,
м/с
пор.,
м/с
влажн.,
%
обл.,
%
осадки,
мм/ч
давл.,
гПа
погр.,
м
16 мая, вс
вс1601:00+13ссз33270 0.0 101717
04:00+12ссз33260 0.0 101718
07:00+15ссз22350 0.0 101723
10:00+20ююз57260 0.0 10161188
13:00+21ююз78300 0.0 10151756
16:00+21ююз77320 0.0 10131692
19:00+17ююз48460 0.0 1013193
22:00+13зсз33440 0.0 101427
17 мая, пн
пн1701:00+13зсз33440 0.0 101429
04:00+12зсз33482 0.0 101234
07:00+15з34505 0.0 1012102
10:00+19юз57402 0.0 1011590
13:00+22юз793871 0.0 1010798
16:00+23юз79390 0.0 1009801
19:00+19зюз34533 0.0 100961
22:00+14зсз226311 0.0 101113
18 мая, вт
вт1801:00+16зсз22464 0.0 100911
04:00+16ссз224052 0.0 100812
07:00+18с124861 0.0 100817
10:00+21вюв4539100 0.0 1008878
13:00+22ююв3336100 0.0 10091263
16:00+23ю45370 0.0 10081836
19:00+19зюз2558100 0.1 1010106
22:00+14ссз327138 0.5 101216
19 мая, ср
ср1901:00+14ссз3265100 0.0 101220
04:00+13с3266100 0.0 101217
07:00+15ссв116454 0.0 101363
10:00+19ююз46500 0.0 10131055
13:00+22юз78381 0.0 10131877
16:00+23з67311 0.1 10132272
19:00+19зюз38523 0.0 1015232
22:00+13с22790 0.0 101914
20 мая, чт
чт2001:00+13с33820 0.0 101925
04:00+12с33850 0.0 102033
07:00+15ссз23691 0.0 102089
10:00+20юз44535 0.0 10191035
13:00+22юз77460 0.0 10181290
16:00+23юз78475 0.0 10161190
19:00+19юз485866 0.0 1016316
22:00+14з32720 0.0 101821